[[{"header":{"parameterUnit":"m.s-1","parameterCategory":1,"la1":30.2991,"la2":30.254,"lo1":-89.0895,"lo2":-89.0444,"dy":0.0017,"dx":0.0017,"nx":28,"ny":28,"refTime":"2024-07-13T21:00:00:Z","depth":0,"parameterNumber":2,"parameterNumberName":"U-component_of_WINDS"},"data":[0,0,0,0,0,0,0,0,0,0,0,0,0,0,0,0,0,0,0,0,0,0,0,0,0,0,0,0,0,0,0,0,0,0,0,0,0,0,0,0,0,0,0,0,0,0,0,0,0,0,0,0,0,0,0,0,0,0,1.1087,1.109,0,1.1385,1.1388,1.1392,1.1526,1.1526,1.1525,1.1525,1.183,1.1839,1.1847,0,0,0,0,0,0,0,0,0,0,0,0,0,1.0631,1.0639,1.1087,1.109,1.1094,1.1385,1.1389,1.1393,1.1526,1.1526,1.1525,1.1525,1.1828,1.1838,1.1848,0,0,0,0,0,0,0,0,0,0,0,0,0,1.0869,1.0641,1.1086,1.1196,1.1208,1.1384,1.1389,1.1394,1.1526,1.1526,1.1525,1.1525,1.1824,1.1837,1.1849,1.1938,0,0,1.1888,1.1893,0,0,0,0,0,0,0,0,1.0855,1.0885,1.1176,1.1188,1.1203,1.1418,1.134,1.1576,1.1526,1.1406,1.1525,1.1524,1.1694,1.1717,1.1774,1.1952,1.1965,1.1889,1.1897,1.1902,1.1906,0,0,0,0,0,0,0,1.0839,1.0873,1.1205,1.118,1.1197,1.1229,1.1263,1.1385,1.1549,1.1416,1.1426,1.146,1.1701,1.1761,1.1782,1.197,1.1889,1.19,1.1908,1.1913,1.2234,1.2235,0,0,0,0,0,0,1.0804,1.0859,1.1195,1.1214,1.1024,1.1238,1.1275,1.1349,1.1548,1.1578,1.146,1.1465,1.174,1.1767,1.1793,1.191,1.1902,1.1914,1.1921,1.2233,1.2234,1.2235,0,0,0,0,0,0,1.0794,1.0833,1.1183,1.1039,1.1086,1.1246,1.1329,1.1356,1.1416,1.1581,1.1611,1.1492,1.1741,1.1776,1.1901,1.1923,1.192,1.1931,1.2232,1.2233,1.2235,1.2144,0,0,0,0,0,0,1.078,1.0829,1.0864,1.1039,1.1093,1.1286,1.133,1.1362,1.1438,1.1447,1.1619,1.1647,1.1743,1.1881,1.1913,1.194,1.1941,1.2231,1.2233,1.2234,1.2145,1.2142,1.2139,0,0,0,0,0,1.0764,1.0827,1.0866,1.0905,1.1142,1.1287,1.1318,1.1427,1.1439,1.1476,1.1582,1.1642,1.1914,1.1893,1.193,1.1961,1.223,1.2232,1.2234,1.2147,1.2142,1.2139,0,0,0,0,0,0,1.0651,1.0852,1.0897,1.1019,1.1134,1.1309,1.1359,1.1419,1.1534,1.1538,1.1668,1.1706,1.1819,1.1903,1.1875,1.2056,1.2077,1.2087,1.1998,1.1995,1.1992,1.197,1.1952,0,0,0,0,0,1.0641,1.0742,1.0912,1.1003,1.1059,1.1198,1.1266,1.1339,1.1465,1.1514,1.1629,1.1748,1.1861,1.1933,1.2045,1.2157,1.2197,1.2197,1.2193,1.219,1.2197,1.2262,1.2264,1.2242,1.2242,1.2242,0,0,1.062,1.0742,1.0798,1.0983,1.1082,1.1183,1.1239,1.1344,1.1421,1.1531,1.1656,1.1743,1.1885,1.2003,1.2061,1.2076,1.2211,1.2192,1.2188,1.2198,1.2264,1.2266,1.2268,1.2244,1.2243,1.2243,0,0,1.0634,1.0737,1.0824,1.0921,1.1069,1.1161,1.1181,1.1347,1.1409,1.1537,1.1621,1.1713,1.1904,1.2002,1.2076,1.2124,1.2183,1.2157,1.2139,1.2201,1.2203,1.2205,1.2222,1.2227,1.2163,1.2163,1.2163,0,1.059,1.0747,1.0861,1.0962,1.104,1.1143,1.1232,1.132,1.1497,1.1549,1.1562,1.1804,1.1906,1.2049,1.206,1.2117,1.2144,1.2139,1.2193,1.2197,1.22,1.2218,1.2225,1.2159,1.2159,1.216,1.216,0,1.0685,1.0792,1.0845,1.1012,1.1097,1.119,1.1318,1.1389,1.1455,1.1545,1.1672,1.1798,1.1938,1.1977,1.2042,1.2129,1.2133,1.2168,1.2192,1.2196,1.2216,1.2223,1.2153,1.2154,1.2155,1.2156,0,0,1.064,1.0868,1.0885,1.0962,1.1132,1.1217,1.1314,1.145,1.1509,1.1626,1.1712,1.187,1.1903,1.1987,1.2064,1.2117,1.2147,1.2147,1.2152,1.2143,1.225,1.2223,1.2229,1.2186,1.2188,1.219,1.2238,0,1.0678,1.0859,1.0963,1.11,1.12,1.1298,1.1383,1.1495,1.1581,1.1678,1.1774,1.1884,1.1919,1.197,1.2028,1.2131,1.2171,1.2129,1.2267,1.2271,1.223,1.2239,1.2212,1.2251,1.2246,1.2247,1.2248,0,1.0748,1.0863,1.101,1.1167,1.1213,1.1287,1.142,1.1511,1.164,1.1699,1.1791,1.1868,1.1974,1.1987,1.2135,1.2104,1.2167,1.2226,1.223,1.2248,1.2261,1.2258,1.2267,1.2273,1.2261,1.226,1.2259,0,1.07,1.0892,1.1005,1.1067,1.1253,1.1303,1.1383,1.1511,1.1586,1.1701,1.1751,1.1876,1.1946,1.2041,1.2149,1.2149,1.2286,1.2309,1.2338,1.2335,1.2364,1.2361,1.2383,1.2401,1.2401,1.2401,1.2401,0,1.0733,1.0819,1.0986,1.1055,1.1154,1.1272,1.1366,1.1454,1.1567,1.1654,1.1746,1.1826,1.1963,1.206,1.2145,1.2254,1.2284,1.2335,1.2357,1.2328,1.2321,1.2372,1.2372,1.2403,1.2403,1.2402,1.2402,0,1.0698,1.0813,1.0942,1.1107,1.115,1.1215,1.1356,1.1427,1.1516,1.1626,1.1658,1.1799,1.1918,1.2034,1.2194,1.2251,1.2359,1.2388,1.2315,1.2328,1.2351,1.2347,1.2407,1.2421,1.2428,1.2427,1.2427,0,1.0712,1.0781,1.0952,1.1017,1.1094,1.1198,1.1274,1.1392,1.1468,1.1618,1.167,1.1795,1.1902,1.2087,1.2203,1.2325,1.2358,1.237,1.2377,1.2345,1.2359,1.2354,1.2362,1.2367,1.2367,1.2366,1.2366,0,1.0725,1.0778,1.0884,1.101,1.1098,1.1203,1.1312,1.1359,1.1498,1.1578,1.17,1.1782,1.1944,1.2067,1.2202,1.2284,1.2348,1.2362,1.2376,1.2348,1.2303,1.2328,1.2307,1.2361,1.2362,1.2362,1.2362,1.2362,1.0716,1.0781,1.0911,1.1026,1.1119,1.1218,1.1292,1.139,1.1494,1.1635,1.1698,1.182,1.1946,1.2135,1.2215,1.2312,1.2329,1.2348,1.2353,1.2356,1.235,1.2286,1.2337,1.2337,1.2338,1.2338,1.2338,0,1.0734,1.0822,1.0926,1.1074,1.1164,1.1215,1.1337,1.1409,1.1516,1.1628,1.173,1.187,1.1989,1.2113,1.224,1.2294,1.2326,1.2323,1.2321,1.2339,1.2328,1.2304,1.2295,1.2295,1.2294,1.2294,1.2294,1.2294,1.0754,1.0866,1.0934,1.1093,1.1181,1.1302,1.1367,1.1458,1.1548,1.1699,1.1798,1.1879,1.1996,1.2131,1.2242,1.2276,1.2318,1.2307,1.2349,1.2337,1.2339,1.2342,1.2321,1.2315,1.2315,1.2352,1.2352,1.2352]},{"header":{"parameterUnit":"m.s-1","parameterCategory":1,"la1":30.2991,"la2":30.254,"lo1":-89.0895,"lo2":-89.0444,"dy":0.0017,"dx":0.0017,"nx":28,"ny":28,"refTime":"2024-07-13T21:00:00:Z","depth":0,"parameterNumber":3,"parameterNumberName":"V-component_of_WINDS"},"data":[0,0,0,0,0,0,0,0,0,0,0,0,0,0,0,0,0,0,0,0,0,0,0,0,0,0,0,0,0,0,0,0,0,0,0,0,0,0,0,0,0,0,0,0,0,0,0,0,0,0,0,0,0,0,0,0,0,0,3.0528,3.0526,0,3.0391,3.039,3.0388,3.0283,3.0282,3.0281,3.028,3.014,3.0138,3.0135,0,0,0,0,0,0,0,0,0,0,0,0,0,3.0698,3.0696,3.0528,3.0526,3.0525,3.0391,3.039,3.0388,3.0283,3.0282,3.0281,3.028,3.0141,3.0138,3.0135,0,0,0,0,0,0,0,0,0,0,0,0,0,3.0599,3.0695,3.0528,3.0457,3.0449,3.0392,3.039,3.0387,3.0284,3.0282,3.0281,3.0279,3.0142,3.0138,3.0134,3.0138,0,0,3.0121,3.012,0,0,0,0,0,0,0,0,3.0605,3.0593,3.0469,3.0461,3.0453,3.0353,3.0398,3.0304,3.0284,3.0346,3.028,3.0279,3.0212,3.0202,3.018,3.0131,3.0125,3.0121,3.0118,3.0117,3.0115,0,0,0,0,0,0,0,3.0612,3.0599,3.0474,3.0467,3.0457,3.0431,3.0415,3.038,3.0289,3.0341,3.0333,3.0318,3.0208,3.0184,3.0176,3.0123,3.0121,3.0117,3.0115,3.0113,3.0071,3.0073,0,0,0,0,0,0,3.063,3.0605,3.0478,3.047,3.0527,3.0429,3.0412,3.0386,3.0289,3.0273,3.032,3.0314,3.0192,3.0181,3.0171,3.0169,3.0117,3.0113,3.011,3.007,3.0071,3.0073,0,0,0,0,0,0,3.0634,3.062,3.0484,3.0535,3.0516,3.0428,3.04,3.0384,3.0361,3.0273,3.0257,3.0312,3.019,3.0176,3.0147,3.0163,3.0111,3.0107,3.0068,3.007,3.0072,3.0166,0,0,0,0,0,0,3.064,3.0622,3.0623,3.0536,3.0513,3.0463,3.0401,3.0383,3.0354,3.0345,3.0262,3.0247,3.0188,3.0154,3.0143,3.0156,3.0104,3.0066,3.0069,3.0072,3.0161,3.0171,3.0179,0,0,0,0,0,3.0646,3.0654,3.0623,3.0608,3.0512,3.0464,3.0451,3.0383,3.0356,3.0355,3.0299,3.025,3.0163,3.0152,3.0138,3.015,3.0065,3.0068,3.0071,3.0157,3.0169,3.0179,0,0,0,0,0,0,3.0745,3.0641,3.0606,3.0586,3.0535,3.0446,3.0444,3.0398,3.0353,3.0347,3.0265,3.0247,3.0226,3.0185,3.0175,3.0149,3.0107,3.0108,3.0177,3.0188,3.0197,3.0208,3.01,0,0,0,0,0,3.0764,3.0734,3.0645,3.0636,3.0612,3.0533,3.0509,3.0461,3.0404,3.0382,3.0324,3.0271,3.0231,3.0207,3.0166,3.0154,3.0135,3.0156,3.0165,3.0173,3.0175,3.0167,3.0176,3.0083,3.0083,3.0083,0,0,3.0804,3.0744,3.0729,3.0654,3.0609,3.0579,3.0515,3.0486,3.0463,3.0377,3.0346,3.0302,3.0237,3.0217,3.0205,3.0182,3.0196,3.0177,3.0184,3.0182,3.0171,3.018,3.0188,3.0086,3.0085,3.0085,0,0,3.0862,3.0813,3.0801,3.0756,3.0688,3.0635,3.0633,3.0551,3.0518,3.0485,3.0421,3.0392,3.0326,3.0283,3.0252,3.0294,3.0247,3.0283,3.0332,3.0325,3.0332,3.0338,3.0354,3.0361,3.0285,3.0285,3.0285,0,3.092,3.0873,3.08,3.0775,3.0744,3.0665,3.0652,3.0613,3.0535,3.0516,3.0491,3.0406,3.0357,3.0326,3.0336,3.0314,3.0309,3.0293,3.0337,3.0342,3.0347,3.0361,3.0367,3.029,3.0289,3.0289,3.0288,0,3.0948,3.0917,3.0915,3.0842,3.081,3.0792,3.0716,3.0693,3.0648,3.0599,3.0567,3.0505,3.045,3.0439,3.0395,3.0402,3.039,3.0352,3.0309,3.0362,3.0374,3.0379,3.0297,3.0295,3.0294,3.0293,0,0,3.1065,3.0952,3.0953,3.0919,3.0838,3.0812,3.079,3.0737,3.0719,3.0668,3.0648,3.0593,3.0558,3.0523,3.0473,3.0467,3.0506,3.043,3.0427,3.0447,3.0511,3.0542,3.0549,3.0474,3.0474,3.0475,3.0517,0,3.1111,3.1067,3.1001,3.0979,3.0949,3.0874,3.0854,3.0803,3.0756,3.0723,3.0671,3.0634,3.059,3.0568,3.0559,3.0503,3.0518,3.0499,3.0455,3.0454,3.0475,3.0555,3.0587,3.063,3.0522,3.0522,3.0523,0,3.1159,3.1112,3.1088,3.101,3.0995,3.0979,3.0925,3.0894,3.0835,3.0801,3.0763,3.0708,3.0681,3.0642,3.0604,3.0593,3.0571,3.0541,3.0541,3.0535,3.0493,3.0553,3.0642,3.0649,3.0529,3.0529,3.0528,0,3.1248,3.1179,3.1156,3.1129,3.1037,3.1028,3.0989,3.0927,3.09,3.0852,3.0834,3.0784,3.0758,3.0721,3.0655,3.0632,3.0625,3.0579,3.0597,3.0599,3.0599,3.0601,3.0687,3.0583,3.0583,3.0583,3.0583,0,3.1307,3.1295,3.1195,3.118,3.1165,3.1089,3.1076,3.103,3.0976,3.0952,3.0883,3.0862,3.0776,3.0744,3.0692,3.067,3.0658,3.063,3.0617,3.0637,3.0641,3.0623,3.0618,3.0585,3.0585,3.0584,3.0584,0,3.1405,3.1337,3.1306,3.1222,3.12,3.1193,3.112,3.1104,3.1052,3.1023,3.1011,3.0931,3.0891,3.0821,3.076,3.0726,3.0714,3.069,3.0734,3.0726,3.0748,3.0748,3.0827,3.0834,3.0726,3.0727,3.0728,0,3.1448,3.1437,3.1351,3.133,3.1294,3.1261,3.1232,3.1157,3.113,3.1061,3.1054,3.1008,3.0968,3.0907,3.0843,3.0797,3.0772,3.0803,3.0765,3.0786,3.0774,3.0777,3.0776,3.0813,3.0814,3.0816,3.0817,0,3.1531,3.1498,3.146,3.141,3.1378,3.1335,3.1289,3.1275,3.119,3.1163,3.1121,3.109,3.1029,3.0985,3.0929,3.0889,3.084,3.0829,3.0831,3.0852,3.0879,3.0866,3.076,3.0828,3.0827,3.0826,3.0825,3.0825,3.1603,3.159,3.1529,3.1488,3.1446,3.1404,3.1385,3.1331,3.1295,3.1239,3.1196,3.1158,3.1099,3.1019,3.0982,3.0951,3.0928,3.0931,3.0931,3.0934,3.0942,3.0883,3.0941,3.094,3.094,3.094,3.0939,0,3.1684,3.1641,3.1605,3.1542,3.1511,3.1466,3.1412,3.1389,3.1356,3.1305,3.1267,3.1219,3.1176,3.1109,3.1061,3.105,3.1026,3.104,3.104,3.1032,3.0965,3.0969,3.106,3.106,3.106,3.106,3.106,3.106,3.1723,3.17,3.1659,3.1614,3.157,3.1532,3.1506,3.1467,3.1426,3.1376,3.134,3.1296,3.1239,3.1186,3.1145,3.1127,3.1113,3.1135,3.1109,3.1048,3.1037,3.1026,3.103,3.1132,3.1132,3.1179,3.118,3.118]}]]